www.pogodaiklimat.ru

Погода и климат >> Архив погоды >> Индия >> Digha


ПОГОДА в Digha

  • Прогноз погоды в Digha
  • Монитор погоды в Digha
  • Климат города

АРХИВ ПОГОДЫ в Digha

Время (UTC), дата Ветер
(напр.,м/с)
 
Видим.   Явления Облачность Т
(С)
Тd
(С)
f
(%)
Тe
(С)
Тes
(С)
Комфортность P
(гПа)
Po
(гПа)
Тmin
(С)
Tmax
(С)
R
(мм)
R24
(мм)
S
(см)
03 13.07 СЗ 2 4000 м слабый дождь 10/5 600 м
[Sc diur, vesp Ac As]
+28.6 +26.9 91 +45 +47 опасность
перегрева
997.1 997.0 +27.2 0.7
06 13.07 В 1 4000 м {дождь} 5/4 600 м
[Sc diur, vesp Ci fib]
+32.8 +27.6 74 +52 +68 опасность
перегрева
997.2 997.0 2
09 13.07 В 1 4000 м 6/4 600 м
[Sc diur, vesp Ac trans]
+34.0 +28.3 72 +55 +63 опасность
перегрева
995.7 996.0 2
12 13.07 В 2 4000 м {дождь} 8/4 600 м
[Sc diur, vesp Ac trans]
+30.4 +26.2 78 +46 +46 опасность
перегрева
994.3 994.0 +34.2 2
15 13.07 ЮВ 2 4000 м 5/4 600 м
[Sc diur, vesp Ac trans]
+30.0 +26.7 83 +47 +47 опасность
перегрева
996.4 996.0 2
18 13.07 ЮЗ 1 4000 м {дождь} 5/3 600 м
[Sc diur, vesp Ac trans]
+28.6 +26.4 88 +44 +44 опасность
перегрева
997.5 998.0 3
21 13.07 штиль 0 4000 м 8/4 600 м
[Sc Ac trans]
+27.8 +26.4 92 +42 +42 опасность
перегрева
996.7 997.0 3
00 14.07 СВ 1 4000 м в посл. час дождь 9/5 600 м
[Sc Ac As]
+27.2 +26.4 95 +41 +41 опасность
перегрева
995.9 996.0 4
03 14.07 СВ 2 4000 м 6/3 600 м
[Sc diur, vesp Ac trans Ci sp]
+30.0 +26.9 84 +47 +54 опасность
перегрева
995.8 996.0 +26.0 4
06 14.07 В 2 4000 м 6/4 600 м
[Sc diur, vesp Ac trans Ci fib]
+33.8 +27.5 70 +53 +65 опасность
перегрева
995.5 996.0
09 14.07 В 3 4000 м 8/5 600 м
[Sc diur, vesp Ac trans Ci fib]
+34.4 +27.0 65 +52 +56 опасность
перегрева
993.9 994.0
12 14.07 В 3 4000 м {морось} 6/4 600 м
[Sc diur, vesp Ac trans]
+32.0 +27.6 78 +52 +52 опасность
перегрева
992.6 993.0 +34.6 0.0
15 14.07 В 1 4000 м в посл. час дождь 5/4 600 м
[Sc diur, vesp Ac trans]
+29.8 +27.0 85 +47 +47 опасность
перегрева
994.8 995.0 0.4
18 14.07 С 1 4000 м {дождь} 6/4 600 м
[Sc diur, vesp Ac trans]
+28.4 +26.2 88 +43 +43 опасность
перегрева
995.3 995.0 0.4
21 14.07 штиль 0 4000 м слабый дождь 10/5 600 м
[Sc Ac As]
+27.6 +26.5 94 +42 +42 опасность
перегрева
994.2 994.0 12
00 15.07 С 1 4000 м в посл. час дождь 9/5 600 м
[Sc diur, vesp Ac As]
+27.0 +26.7 98 +42 +42 опасность
перегрева
993.1 993.0 18
03 15.07 В 1 4000 м в посл. час дождь 8/4 600 м
[Sc diur, vesp Ac trans Ci fib]
+28.4 +28.1 98 +47 +52 опасность
перегрева
994.2 994.0 +25.7 21
06 15.07 В 3 4000 м {дождь} 5/3 600 м
[Sc diur, vesp Ac trans Ci fib]
+32.0 +27.6 78 +52 +64 опасность
перегрева
994.3 994.0
09 15.07 Ю 3 4000 м {дождь} 6/4 600 м
[Sc diur, vesp Ac trans]
+33.4 +27.9 73 +54 +60 опасность
перегрева
993.1 993.0 0.2
12 15.07 штиль 0 4000 м слабый дождь 9/5 600 м
[Sc diur, vesp Ac trans]
+31.0 +28.0 84 +51 +51 опасность
перегрева
992.4 992.0 +33.7 1
15 15.07 ЮВ 3 4000 м зарница {дождь} 5/4 600 м
[Cb cap Ac trans]
+28.8 +26.6 88 +45 +45 опасность
перегрева
994.2 994.0 6
18 15.07 ЮВ 2 4000 м {дождь} 6/4 600 м
[Sc diur, vesp Ac trans]
+28.2 +26.8 92 +44 +44 опасность
перегрева
995.1 995.0 8
21 15.07 Ю 2 4000 м 8/4 600 м
[Sc Ac trans]
+27.8 +26.7 94 +43 +43 опасность
перегрева
994.3 994.0 8
00 16.07 ЮВ 1 4000 м {дождь} 8/5 600 м
[Sc diur, vesp Ac trans]
+27.4 +26.6 95 +42 +42 опасность
перегрева
993.4 993.0 11
03 16.07 В 3 4000 м 9/5 600 м
[Sc Ac As]
+29.4 +27.2 88 +47 +49 опасность
перегрева
993.9 994.0 +26.4 11
06 16.07 В 2 4000 м 8/5 600 м
[Sc diur, vesp Ac trans]
+32.0 +27.3 76 +50 +58 опасность
перегрева
994.1 994.0
09 16.07 Ю 2 4000 м в посл. час дождь 8/5 600 м
[Sc diur, vesp Ac trans]
+30.0 +28.4 91 +51 +55 опасность
перегрева
992.3 992.0 0.3
12 16.07 ЮЗ 1 4000 м слабый дождь 9/6 600 м
[Sc diur, vesp Ac As]
+29.8 +27.6 88 +48 +49 опасность
перегрева
991.8 992.0 +32.3 0.5
15 16.07 Ю 4 4000 м {дождь} 9/6 600 м
[Sc diur, vesp Ac As]
+27.8 +26.1 90 +42 +42 опасность
перегрева
994.5 995.0 1
18 16.07 ЮЗ 6 4000 м {дождь} 8/5 600 м
[Sc Ac trans]
+28.2 +24.5 80 +40 +40 очень
душно
996.6 997.0 1
21 16.07 ЮЗ 3 4000 м 9/5 600 м
[Sc diur, vesp Ac As]
+28.4 +27.3 94 +45 +45 опасность
перегрева
995.9 996.0 1
00 17.07 ЮЗ 2 4000 м {дождь} 8/5 600 м
[Sc diur, vesp Ac trans]
+28.2 +26.8 92 +44 +44 опасность
перегрева
995.5 996.0 2
03 17.07 ЮЗ 1 4000 м 6/4 600 м
[Sc diur, vesp Ac trans]
+30.4 +28.5 90 +52 +58 опасность
перегрева
997.3 997.0 +26.5 2
06 17.07 ЮЗ 1 4000 м дождь 10/5 600 м
[Sc diur, vesp Ac As]
+30.6 +28.1 87 +51 +55 опасность
перегрева
997.5 998.0 5
09 17.07 Ю 1 4000 м {дождь} 9/5 600 м
[Sc diur, vesp Ac As]
+32.4 +28.0 78 +53 +57 опасность
перегрева
996.0 996.0 16
12 17.07 Ю 2 4000 м {дождь} 8/5 600 м
[Sc diur, vesp Ac trans]
+31.0 +27.4 81 +49 +50 опасность
перегрева
995.2 995.0 +32.8 16
15 17.07 ЮЗ 1 4000 м 4/3 600 м
[Sc diur, vesp Ac trans]
+29.8 +27.0 85 +47 +47 опасность
перегрева
996.6 997.0 16
18 17.07 ЮЗ 2 4000 м 6/4 600 м
[Sc diur, vesp Ac trans]
+29.0 +26.2 85 +44 +44 опасность
перегрева
997.8 998.0 16
21 17.07 ЮЗ 1 4000 м 8/5 600 м
[Sc diur, vesp Ac trans]
+28.8 +26.3 86 +44 +44 опасность
перегрева
997.3 997.0 16
00 18.07 ЮЗ 1 4000 м 8/4 600 м
[Sc diur, vesp Ac trans]
+28.8 +26.6 88 +45 +45 опасность
перегрева
996.9 997.0 16
03 18.07 Ю 1 4000 м слабая морось {дождь} 8/5 600 м
[Sc Ac trans]
+30.2 +27.7 87 +49 +54 опасность
перегрева
998.0 998.0 +27.8 17
06 18.07 Ю 2 4000 м {дождь, морось} 6/4 600 м
[Sc diur, vesp Ac trans]
+33.8 +28.4 73 +55 +66 опасность
перегрева
997.8 998.0
09 18.07 ЮЗ 1 4000 м 8/4 600 м
[Sc diur, vesp Ac trans]
+32.0 +27.6 78 +52 +57 опасность
перегрева
996.2 996.0
12 18.07 ЮЗ 1 4000 м 9/5 600 м
[Sc diur, vesp Ac As]
+31.4 +27.6 80 +50 +51 опасность
перегрева
995.7 996.0 +34.2
15 18.07 ЮВ 1 4000 м 8/5 600 м
[Sc diur, vesp Ac trans]
+29.8 +27.0 85 +47 +47 опасность
перегрева
997.1 997.0
18 18.07 Ю 1 4000 м 6/4 600 м
[Sc diur, vesp Ac trans]
+29.4 +27.8 91 +48 +48 опасность
перегрева
997.7 998.0
21 18.07 Ю 1 4000 м 6/4 600 м
[Sc diur, vesp Ac trans]
+28.8 +27.1 91 +46 +46 опасность
перегрева
997.5 998.0
00 19.07 СЗ 1 4000 м 6/4 600 м
[Sc diur, vesp Ac trans]
+28.4 +27.0 92 +45 +45 опасность
перегрева
997.3 997.0
03 19.07 СВ 1 4000 м 6/4 600 м
[Sc diur, vesp Ac trans]
+31.6 +27.5 79 +51 +57 опасность
перегрева
997.9 998.0 +27.5
06 19.07 В 2 4000 м 8/4 600 м
[Sc diur, vesp Ac trans]
+33.8 +28.4 73 +55 +63 опасность
перегрева
997.2 997.0
09 19.07 В 2 4000 м 8/4 600 м
[Sc diur, vesp Ac trans Ci fib]
+35.0 +27.9 67 +56 +61 опасность
перегрева
995.3 995.0
12 19.07 З 1 4000 м 5/3 600 м
[Sc diur, vesp Ac trans Ci fib]
+33.4 +28.2 74 +54 +55 опасность
перегрева
994.0 994.0 +35.6
15 19.07 Ю 1 4000 м 3/3 600 м
[Sc]
+31.4 +28.1 83 +52 +52 опасность
перегрева
996.4 996.0
18 19.07 штиль 0 4000 м 5/3 600 м
[Sc Ac trans]
+30.4 +28.2 88 +51 +51 опасность
перегрева
996.7 997.0
21 19.07 штиль 0 4000 м {дождь} 6/4 600 м
[Sc Ac trans]
+29.8 +28.2 91 +50 +50 опасность
перегрева
995.9 996.0 0.4

 

Местоположение метеостанции Digha (West Bengal, Индия): широта 21.62 долгота 87.50 высота над уровнем моря 6 м.

В архиве по умолчанию представлена погода в Digha за последнюю неделю. Архивные данные за месяц целиком и за предыдущие месяцы, начиная с января 2011 года, Вы можете получить, выбрав интересующий диапазон дат из раскрывающегося списка и нажав кнопку "Ввод!".


*Определитесь, кто Вы:
робот инопланетянин человек

Внимание! Время в таблицах - всемирное. Для получения местного времени необходимо прибавить поправку, которая в Digha равна 5.5 ч.

Смотрите также архив погоды в соседних городах и на ближайших метеорологических станциях:

Погода в Contai (West Bengal, Индия) (31 км)
Погода в Balasore (Orissa, Индия) (60 км)
Погода в Haldia (West Bengal, Индия) (73 км)
Погода в Baripada (Orissa, Индия) (83 км)
Погода в Midnapore (West Bengal, Индия) (91 км)
Погода в Diamond Harbour (West Bengal, Индия) (95 км)
Погода в Uluberia (West Bengal, Индия) (108 км)
Погода в Chandbali (Orissa, Индия) (123 км)
Погода в Kolkata (West Bengal, Индия) (133 км)
Погода в Canning (West Bengal, Индия) (140 км)

Пояснения к столбцам:

Ветер - указаны скорость ветра в м/с - средняя за 10 мин, порывы в срок и между сроками (в фигурных скобках) и направление, откуда дует ветер: С - северный, СВ - северо-восточный, В - восточный, ЮВ - юго-восточный, Ю - южный, ЮЗ - юго-западный, З - западный, СЗ - северо-западный.
Видимость - горизонтальная дальность видимости в метрах или километрах. При видимости от 1 до 10 км при отсутствии осадков обычно наблюдается дымка, при ухудшении видимости до 1 км и менее - туман. В сухую погоду видимость может ухудшаться дымом, пылью или мглою.
Явления - указаны атмосферные явления, наблюдавшиеся в срок или в последний час перед сроком; фигурными скобками обозначены явления, наблюдавшиеся между сроками (за 1-3 часа до срока); квадратными скобками обозначены град или гололедные отложения с указанием их диаметра в мм.
Облачность - указаны через наклонную черту общая и нижняя облачность в баллах и высота нижней границы облаков в метрах; квадратными скобками обозначены формы облаков: Ci - перистые, Cs - перисто-слоистые, Cc - перисто-кучевые, Ac - высококучевые, As - высокослоистые, Sc - слоисто-кучевые, Ns - слоисто-дождевые, Cu - кучевые, Cb - кучево-дождевые. Подробнее классификацию облаков см. в Атласе облаков (PDF).
T - Температура воздуха - температура, измеренная на высоте 2 м над землей.
Td - Температура точки росы - температура, при понижении до которой содержащийся в воздухе водяной пар достигнет насыщения.
f - Относительная влажность воздуха - влажноcть воздуха, измеренная на высоте 2 м над землей.
Te - Эффективная температура - температура, которую ощущает одетый по сезону человек в тени. Характеристика душности погоды. При расчете учитывается влияние влажности воздуха и скорости ветра на теплоощущения человека.
Tes - Эффективная температура на солнце - температура, которую ощущает человек, с поправкой на солнечный нагрев. Характеристика знойности погоды. Зависит от высоты солнца над горизонтом, облачности и скорости ветра. Ночью, в пасмурную погоду, а также при ветре 12 м/с и более поправка равна нулю.
P - Атмосферное давление - приведенное к уровню моря атмосферное давление.
Po - Атмосферное давление - измеренное на уровне метеостанции атмосферное давление.
Tmin - Минимальная температура - минимум температуры воздуха на высоте 2 м над землей.
Tmax - Максимальная температура - максимум температуры воздуха на высоте 2 м над землей.
R - Количество осадков - Количество выпавших осадков за период времени, мм. При наведении курсора мыши на число - период времени, за который выпало указанное количество осадков.
R24 - Количество осадков - Количество выпавших осадков за 24 часа, мм.
S - Снежный покров - Высота снежного покрова, см. При наведении курсора мыши на число - состояние снежного покрова и степень покрытия местности в баллах.